This is the latest recevied weather packets stored in our database for station/object K1KOF. If no packets are shown the sender has not sent any weather packets the latest 10 day(s).
| Time | Temp. | Humidity | Pressure | Rain* | Wind** | Luminosity | Snow |
|---|---|---|---|---|---|---|---|
| 1777421245 | 17.78° C | 91% | 1027.4 hPa | 0 mm | - | 0 W/m² | - |
| 1777420941 | 17.78° C | 91% | 1027.8 hPa | 0 mm | - | 1 W/m² | - |
| 1777420637 | 17.78° C | 90% | 1027.4 hPa | 0 mm | - | 4 W/m² | - |
| 1777420334 | 17.78° C | 90% | 1028.1 hPa | 0 mm | - | 9 W/m² | - |
| 1777420030 | 18.33° C | 89% | 1027.7 hPa | 0 mm | - | 12 W/m² | - |
| 1777419727 | 18.33° C | 89% | 1027.5 hPa | 0 mm | - | 18 W/m² | - |
| 1777419424 | 18.33° C | 89% | 1027.8 hPa | 0 mm | - | 22 W/m² | - |
| 1777419118 | 18.33° C | 88% | 1027.9 hPa | 0 mm | - | 28 W/m² | - |
| 1777418817 | 18.89° C | 88% | 1028.1 hPa | 0 mm | - | 33 W/m² | - |
| 1777418515 | 18.89° C | 87% | 1028 hPa | 0 mm | - | 40 W/m² | - |
| 1777418211 | 18.89° C | 87% | 1028 hPa | 0 mm | - | 49 W/m² | - |
| 1777417906 | 18.89° C | 87% | 1028 hPa | 0 mm | - | 56 W/m² | - |
| 1777417603 | 18.89° C | 87% | 1028 hPa | 0 mm | - | 50 W/m² | - |
| 1777417299 | 18.89° C | 87% | 1028.4 hPa | 0 mm | - | 45 W/m² | - |
| 1777416995 | 18.89° C | 87% | 1028.5 hPa | 0 mm | - | 53 W/m² | - |
| 1777416691 | 18.89° C | 87% | 1028.3 hPa | 0 mm | - | 50 W/m² | - |
| 1777416387 | 18.89° C | 86% | 1028.2 hPa | 0 mm | - | 62 W/m² | - |
| 1777416086 | 18.89° C | 86% | 1028 hPa | 0 mm | - | 75 W/m² | - |
| 1777415781 | 18.89° C | 86% | 1028 hPa | 0 mm | - | 89 W/m² | - |
| 1777415477 | 18.89° C | 85% | 1028.1 hPa | 0 mm | - | 88 W/m² | - |
| 1777415173 | 18.89° C | 85% | 1028.2 hPa | 0 mm | - | 86 W/m² | - |
| 1777414869 | 19.44° C | 85% | 1028.2 hPa | 0 mm | - | 60 W/m² | - |
| 1777414568 | 19.44° C | 85% | 1027.9 hPa | 0 mm | - | 43 W/m² | - |
| 1777414263 | 19.44° C | 85% | 1028 hPa | 0 mm | - | 44 W/m² | - |
| 1777413958 | 19.44° C | 84% | 1028.2 hPa | 0 mm | - | 84 W/m² | - |
* Rain latest hour (hover to see other rain measurements)
** Current wind speed in m/s (hover to see current wind gust speed)